Location: Bédeille
(43.0872°N, 1.1041°E)
Time: 12:01:51
(UTC+00:00)

In-Cosmos 22 Rocket - Pass Details

Date: 03 February 2023
Orbit: 789 x 888 km, 81.2° (Epoch: 20 March)

Event Time Altitude Azimuth Distance (km) Brightness Sun altitude
Rises 18:28:24 0° 189° (S) 3,458 7.6 -14.6°
Reaches altitude 10° 18:30:49 10° 189° (S) 2,532 6.9 -15.0°
Maximum altitude 18:36:37 88° 277° (W) 895 4.3 -16.0°
Drops below altitude 10° 18:42:30 10° 10° (N) 2,561 6.5 -17.1°
Sets 18:44:57 0° 10° (N) 3,501 7.2 -17.5°
